FW4538 Weather Reports


Display with metric or nautical units.
time (UTC)temp
F
wind
direction
speed
MPH
gust
MPH
rain 1hr
in
rain 24hr
in
rain mn
in
humidity
%
barometer
mb
20260506013002 55 77 2.0 6.0 0.00 0.00 0.00 86 1017.3
20260506011507 56 86 2.0 7.0 0.00 0.00 0.00 86 1017.2
20260506010001 56 123 2.0 6.0 0.00 0.00 0.00 86 1017.1
20260506004503 56 143 2.0 5.0 0.00 0.00 0.00 85 1017.1
20260506003128 57 108 2.0 7.0 0.00 0.00 0.00 85 1017.0
20260506001609 57 125 2.0 6.0 0.00 0.00 0.00 85 1017.1
20260506000059 57 127 3.0 7.0 0.00 0.00 0.00 85 1017.2
20260505234559 57 122 3.0 9.0 0.00 0.00 0.00 85 1017.2
20260505233111 57 128 3.0 9.0 0.00 0.00 0.00 85 1017.3
20260505231557 58 144 4.0 8.0 0.00 0.00 0.00 84 1017.4
20260505230059 58 127 3.0 8.0 0.00 0.00 0.00 84 1017.4
20260505224556 58 127 4.0 8.0 0.00 0.00 0.00 84 1017.3
20260505223056 58 134 4.0 10.0 0.00 0.00 0.00 82 1017.3
20260505221555 59 105 3.0 9.0 0.00 0.00 0.00 83 1017.4
20260505220053 59 94 4.0 9.0 0.00 0.00 0.00 82 1017.4
20260505214609 59 127 4.0 11.0 0.00 0.00 0.00 81 1017.2
20260505213052 60 96 5.0 9.0 0.00 0.00 0.00 79 1017.2
20260505211550 61 162 2.0 8.0 0.00 0.00 0.00 79 1017.2
20260505210049 60 158 2.0 8.0 0.00 0.00 0.00 78 1017.1
20260505204549 60 110 3.0 11.0 0.00 0.00 0.00 78 1017.0
20260505203048 61 165 3.0 10.0 0.00 0.00 0.00 77 1017.1
20260505201552 61 144 3.0 10.0 0.00 0.00 0.00 76 1017.2
20260505200047 61 45 3.0 8.0 0.00 0.00 0.00 76 1017.3
20260505194546 61 129 2.0 6.0 0.00 0.00 0.00 76 1017.2
20260505193046 61 113 2.0 6.0 0.00 0.00 0.00 75 1017.2
20260505191555 61 105 2.0 5.0 0.00 0.00 0.00 76 1017.3
20260505190041 60 99 1.0 7.0 0.00 0.00 0.00 77 1017.2
20260505184544 60 87 2.0 5.0 0.00 0.00 0.00 78 1017.2
20260505183059 59 127 2.0 6.0 0.00 0.00 0.00 79 1017.2
20260505181537 59 61 2.0 6.0 0.00 0.00 0.00 79 1017.2
20260505180037 59 127 1.0 6.0 0.00 0.00 0.00 80 1017.2
20260505174534 58 143 2.0 6.0 0.00 0.00 0.00 79 1017.1
20260505173041 58 122 3.0 6.0 0.00 0.00 0.00 79 1016.9
20260505171542 58 107 3.0 6.0 0.00 0.00 0.00 79 1016.8
20260505170031 59 61 1.0 4.0 0.00 0.00 0.00 79 1016.8
20260505164529 58 131 2.0 4.0 0.00 0.00 0.00 78 1016.8
20260505163027 58 116 1.0 3.0 0.00 0.00 0.00 79 1016.7
20260505161526 58 143 0.0 3.0 0.00 0.00 0.00 80 1016.7
20260505153017 55 302 0.0 0.0 0.00 0.00 0.00 88 1016.6
20260505151520 54 266 0.0 0.0 0.00 0.00 0.00 89 1016.4
20260505124511 53 266 0.0 0.0 0.00 0.00 0.00 90 1016.0
20260505123010 53 266 0.0 0.0 0.00 0.00 0.00 90 1015.8
20260505121510 53 266 0.0 0.0 0.00 0.00 0.00 90 1015.7
20260505120028 53 266 0.0 0.0 0.00 0.00 0.00 90 1015.7
20260505114510 53 266 0.0 0.0 0.00 0.00 0.00 90 1015.6
20260505113007 53 266 0.0 0.0 0.00 0.00 0.00 90 1015.5
20260505111506 53 266 0.0 0.0 0.00 0.00 0.00 90 1015.6
20260505101603 54 266 0.0 0.0 0.00 0.00 0.00 90 1015.5
20260505100059 54 266 0.0 0.0 0.00 0.00 0.00 90 1015.6
20260505094558 54 266 0.0 0.0 0.00 0.00 0.00 90 1015.7
20260505093058 54 266 0.0 0.0 0.00 0.00 0.00 89 1015.9
20260505091601 54 266 0.0 0.0 0.00 0.00 0.00 89 1015.9
20260505090053 54 266 0.0 0.0 0.00 0.00 0.00 89 1016.1
20260505084551 54 266 0.0 1.0 0.00 0.00 0.00 89 1016.3
20260505083050 54 266 0.0 1.0 0.00 0.00 0.00 89 1016.3
20260505081548 54 266 0.0 1.0 0.00 0.00 0.00 89 1016.3
20260505080046 55 266 0.0 1.0 0.00 0.00 0.00 89 1016.4
20260505074549 55 266 0.0 1.0 0.00 0.00 0.00 89 1016.4
20260505073101 55 266 0.0 1.0 0.00 0.00 0.00 88 1016.4
20260505071541 55 266 0.0 1.0 0.00 0.00 0.00 88 1016.3
20260505070041 55 266 0.0 0.0 0.00 0.00 0.00 88 1016.3
20260505064543 55 266 0.0 0.0 0.00 0.00 0.00 88 1016.4
20260505063040 55 266 0.0 1.0 0.00 0.00 0.00 88 1016.2
20260505061549 55 266 0.0 0.0 0.00 0.00 0.00 88 1016.4
20260505060039 55 266 0.0 1.0 0.00 0.00 0.00 87 1016.4
20260505054558 55 266 0.0 1.0 0.00 0.00 0.00 87 1016.4
20260505053041 55 266 0.0 1.0 0.00 0.00 0.00 87 1016.5
20260505051537 56 266 0.0 1.0 0.00 0.00 0.00 87 1016.5
20260505041535 56 266 0.0 0.0 0.00 0.00 0.00 86 1016.3
20260505040035 56 266 0.0 0.0 0.00 0.00 0.00 86 1016.1
20260505034534 56 265 0.0 1.0 0.00 0.01 0.00 85 1015.8
20260505033035 56 266 0.0 1.0 0.00 0.01 0.00 85 1015.6
20260505031543 56 283 0.0 2.0 0.00 0.01 0.00 85 1015.6
20260505030033 57 283 0.0 2.0 0.00 0.01 0.00 84 1015.5
20260505024538 57 288 0.0 2.0 0.00 0.07 0.00 84 1015.5
20260505023033 57 256 0.0 2.0 0.00 0.07 0.00 83 1015.4
20260505021531 58 260 0.0 2.0 0.00 0.07 0.00 82 1015.5
20260505020033 59 267 0.0 1.0 0.00 0.07 0.00 82 1015.6
20260505014535 59 268 0.0 1.0 0.00 0.17 0.00 82 1015.7